GFSMW_sfc_30mbdewp_009.txt.gz
Dewpoint
44 45 46 49 49 50 51 51 50 48 46 45 45 45 41 42 43 44 44 41 41 38 37 38 38 39 38 38 40 40 38 37 41 38 37 35 32 36 42 42 41 39 39
42 42 43 44 44 46 46 45 44 44 45 45 45 44 43 43 46 42 39 39 39 37 36 36 38 39 38 37 38 39 38 39 41 40 39 34 34 38 38 39 37 37 39
41 41 40 40 41 41 40 40 40 41 41 42 43 41 42 43 42 41 37 36 37 36 36 37 39 39 39 38 40 40 39 38 39 41 39 35 34 36 37 34 35 35 35
41 39 38 37 37 37 37 37 37 37 38 39 38 38 38 39 42 39 34 34 36 36 37 38 38 38 38 38 40 40 39 39 38 39 39 38 38 34 31 33 31 34 33
40 39 39 38 38 38 37 37 38 37 37 38 38 40 40 39 39 34 32 32 35 37 37 36 36 37 37 37 36 36 35 35 34 35 35 36 36 36 33 31 30 32 33
41 41 41 40 40 40 39 37 38 38 39 38 38 40 38 37 32 34 35 33 34 36 37 37 37 37 36 36 35 35 34 34 35 35 35 35 34 34 34 32 31 31 32
41 41 40 40 40 40 40 40 39 38 37 37 36 36 33 32 35 36 36 35 36 38 36 37 36 36 35 35 34 33 33 33 30 32 33 34 34 36 34 33 30 31 31
41 39 39 40 39 37 35 34 35 34 35 35 35 35 34 35 36 37 37 37 37 37 37 36 34 33 33 34 34 32 32 32 30 29 31 32 33 34 34 31 30 26 27
38 39 39 39 38 38 38 37 35 34 35 37 38 38 38 38 38 39 39 37 37 37 36 35 34 35 33 32 33 30 29 31 31 31 32 32 32 30 31 31 31 30 24
37 38 37 35 34 35 36 37 38 37 36 36 37 38 38 38 38 38 37 36 34 35 34 35 35 31 28 29 30 29 29 31 31 32 31 26 27 24 26 23 24 27 29
37 37 35 34 33 32 30 32 32 28 26 28 32 33 33 33 36 36 35 33 33 34 34 33 29 27 25 25 24 24 26 29 29 25 23 21 22 21 21 21 21 22 23
36 35 33 32 31 24 23 23 24 22 24 27 29 29 31 32 35 35 34 33 32 31 33 34 33 28 23 22 22 23 28 24 21 20 20 19 18 18 19 19 19 20 21
35 34 32 30 23 22 21 20 21 21 22 22 24 28 31 32 33 35 31 29 30 31 33 35 31 24 21 22 23 25 23 21 20 20 19 19 18 17 17 18 20 22 23
34 33 32 26 22 20 19 19 20 21 21 21 24 29 32 33 31 30 30 30 32 35 35 35 29 22 21 23 24 22 20 21 20 20 20 19 18 17 18 19 25 26 26
33 32 31 24 20 19 19 19 19 20 22 20 25 29 33 35 34 34 34 34 35 35 36 28 21 22 23 23 21 20 21 21 20 20 20 19 19 19 18 18 21 22 25
31 31 31 25 20 19 17 17 18 19 22 21 25 29 30 32 34 35 36 36 36 36 23 29 25 23 22 24 23 23 22 21 20 20 20 20 21 19 18 19 21 21 23
29 29 30 22 20 18 17 16 17 20 21 22 27 29 31 31 32 33 35 35 33 30 27 21 22 21 22 25 26 27 25 24 23 23 22 20 18 19 20 20 20 20 22
30 31 27 19 19 18 17 17 18 20 21 22 29 29 30 29 31 32 32 32 33 32 25 22 24 23 26 28 28 28 24 22 22 20 19 20 20 22 20 24 23 24 21
31 26 21 18 17 17 16 17 19 20 22 22 27 29 30 30 31 30 30 31 31 27 23 24 24 23 25 25 24 21 21 19 18 19 19 18 19 19 23 24 23 22 21
23 21 18 16 16 16 18 19 20 21 21 23 27 29 29 30 28 28 29 29 19 23 23 22 23 22 19 23 19 18 19 17 18 19 18 18 19 21 20 21 22 20 19
17 18 17 17 19 20 21 20 21 21 22 26 27 27 27 25 25 24 22 20 23 24 20 21 21 20 20 19 17 17 17 17 20 18 18 20 20 20 21 22 22 22 23
17 17 17 19 21 22 22 22 22 22 24 26 27 26 26 25 25 24 21 23 23 19 18 18 18 19 17 17 17 17 17 17 19 19 20 21 17 19 20 21 22 22 22
17 18 20 21 22 23 24 24 25 26 27 27 27 26 26 26 25 22 21 21 20 18 18 18 16 17 18 16 18 19 17 20 20 20 19 17 16 16 17 17 20 20 20
19 20 21 21 23 25 26 27 27 28 29 28 27 27 26 26 25 22 21 20 19 19 19 19 18 17 16 15 17 18 14 19 16 16 16 17 17 16 16 15 16 19 19
21 21 22 24 24 26 28 27 27 30 29 28 28 27 28 26 23 21 22 21 21 21 20 20 19 16 16 14 19 19 16 13 15 13 13 14 13 13 14 13 14 15 16
21 21 23 25 25 28 27 27 28 30 31 30 30 30 30 26 25 23 22 23 24 24 24 24 19 16 18 19 20 19 16 14 14 12 12 11 11 11 13 13 12 12 13

GFSMW_sfc_30mbdewp_012.txt.gz
Dewpoint
45 49 49 51 52 53 55 52 53 51 48 47 46 43 43 45 44 42 40 40 38 37 36 37 38 38 37 38 39 38 37 36 41 38 33 36 35 39 41 40 38 37 38
44 44 46 48 48 50 52 50 47 46 47 45 46 47 44 45 42 39 37 38 36 37 37 38 39 38 37 38 39 38 36 37 41 39 38 32 33 37 35 38 36 35 36
43 42 42 43 45 45 44 43 44 43 44 45 43 42 43 44 41 39 34 36 36 37 37 38 38 37 37 38 38 38 37 36 38 40 37 34 31 35 35 33 35 33 34
39 39 37 37 37 37 38 38 39 38 39 39 38 38 38 39 40 35 33 35 36 36 37 36 37 36 38 39 38 38 36 37 34 37 36 36 37 33 29 32 32 33 33
38 37 36 36 37 38 38 38 38 39 38 38 40 40 39 40 35 33 34 33 35 35 35 36 37 38 37 36 36 35 33 34 32 33 34 34 35 35 34 29 29 31 32
40 39 40 40 39 39 38 38 39 38 39 38 39 38 38 33 32 35 35 35 35 36 36 37 37 37 36 35 34 34 33 33 32 32 32 33 32 30 30 29 29 29 30
40 40 40 40 40 39 39 38 36 35 35 34 34 34 33 32 34 35 36 36 37 38 38 37 36 35 35 34 33 31 30 30 28 28 29 32 31 33 33 31 26 27 24
41 40 39 37 35 34 34 35 34 34 36 37 36 36 36 36 37 38 38 38 38 37 37 36 34 33 33 32 33 33 30 31 28 27 28 30 31 32 31 30 28 23 22
39 39 39 38 37 38 37 35 35 35 35 35 36 37 38 37 37 38 38 38 37 37 37 35 36 36 35 35 33 32 28 29 29 29 30 31 31 30 26 29 25 25 20
38 38 36 35 36 36 38 38 33 27 26 27 30 29 28 29 32 34 35 36 36 36 35 35 35 35 33 30 31 30 28 28 29 31 31 26 25 23 23 22 21 22 20
37 34 34 33 31 31 29 26 23 21 22 24 26 27 29 30 31 32 35 35 34 34 34 35 32 29 30 30 27 25 25 25 29 26 22 21 22 20 21 19 20 19 20
35 34 32 30 24 22 22 21 21 21 23 24 25 27 29 30 30 31 33 33 33 33 32 32 34 34 31 27 23 22 23 26 23 21 20 20 19 19 18 18 17 18 19
34 33 32 29 22 21 20 21 21 20 21 21 23 26 29 31 30 30 30 31 30 31 33 35 35 33 28 22 23 23 25 22 20 21 21 20 20 19 18 17 19 19 21
34 33 31 26 21 21 20 20 20 20 21 21 23 26 28 31 32 33 32 31 32 34 35 35 34 27 22 23 24 23 21 20 21 22 21 21 20 19 18 20 19 20 21
33 32 31 25 21 22 21 19 19 20 21 21 22 25 29 31 32 33 34 35 35 35 36 32 23 24 23 23 22 20 21 21 21 21 22 21 21 23 21 18 18 19 21
32 32 31 26 22 21 19 18 18 19 21 22 21 26 29 30 30 32 32 33 35 35 34 27 26 22 22 24 25 25 26 24 24 23 22 22 20 19 18 19 19 20 20
31 30 30 30 24 21 19 17 17 19 21 22 22 25 29 30 29 31 31 32 33 32 31 28 22 22 23 26 27 28 26 23 22 21 19 17 16 19 20 21 20 21 24
30 29 30 29 22 21 19 18 18 19 20 21 23 26 29 29 30 30 30 30 31 32 31 23 23 24 27 26 26 25 21 20 19 19 18 18 18 20 19 22 24 21 23
31 31 28 23 19 18 17 17 18 19 21 21 22 25 29 28 29 28 27 28 30 28 23 24 24 24 22 24 21 20 19 19 18 18 19 18 19 19 22 22 21 20 19
30 24 20 17 16 17 19 20 20 21 21 22 23 27 28 27 27 25 25 26 21 21 24 23 22 20 19 20 18 18 17 16 17 20 19 18 19 19 20 23 20 19 19
18 17 17 17 19 21 21 20 22 23 23 24 26 27 27 26 25 25 24 22 21 24 22 21 21 19 19 17 18 17 17 17 19 19 18 19 20 17 17 19 21 21 22
17 17 18 19 21 22 23 24 24 26 26 27 28 27 27 26 26 25 22 23 24 20 19 19 18 19 16 18 19 19 18 17 18 17 19 20 16 15 15 16 18 20 20
17 19 20 20 21 23 25 26 26 26 27 29 28 27 27 26 26 25 21 21 21 18 18 18 17 16 18 17 18 20 18 18 17 16 16 16 14 15 15 15 16 18 18
19 20 19 19 21 24 26 28 27 27 28 29 28 28 27 27 26 23 22 21 19 19 19 19 19 17 17 16 15 18 17 14 16 13 13 14 15 13 15 14 14 15 16
20 20 20 22 23 25 27 28 27 28 29 30 30 29 29 29 27 22 22 21 21 21 20 20 20 18 17 16 17 20 16 14 14 12 11 12 11 11 13 12 12 12 12
20 20 22 24 25 27 28 27 28 28 29 28 29 28 28 30 28 24 23 24 24 24 25 25 21 18 18 19 21 21 18 15 14 10 11 10 9 9 11 12 11 11 9

GFSMW_sfc_30mbdewp_018.txt.gz
Dewpoint
49 53 54 56 56 58 58 59 58 58 57 54 51 48 49 47 44 42 43 42 41 40 40 37 38 39 38 40 39 37 35 34 35 33 27 25 24 31 32 30 31 33 32
49 53 55 56 56 57 57 58 57 56 52 50 49 49 47 44 42 41 41 40 38 38 36 38 38 39 38 37 39 38 34 31 34 35 31 23 22 22 28 29 28 29 30
49 52 54 56 57 56 57 55 53 50 49 49 47 46 46 43 41 40 38 38 39 38 38 39 38 37 36 34 38 37 36 32 31 31 30 27 22 22 23 23 22 27 27
51 52 51 51 53 52 49 47 47 47 45 42 42 43 41 41 40 38 38 38 40 40 38 37 38 38 37 37 37 34 33 30 27 25 24 27 27 23 22 21 23 20 20
47 45 44 46 45 47 45 44 42 41 42 43 43 42 40 38 38 38 39 39 38 38 38 37 36 38 37 37 37 33 30 30 30 27 24 21 20 19 18 16 16 17 16
41 39 40 39 40 42 43 42 41 41 41 41 40 40 38 36 34 34 32 27 26 25 27 33 38 38 38 38 34 31 33 32 27 22 20 19 17 17 16 15 14 14 14
38 37 38 37 39 42 42 40 39 39 39 37 34 34 34 33 26 23 21 21 19 20 22 27 32 36 38 36 33 34 33 27 24 22 20 19 19 18 18 17 16 15 15
38 38 38 39 41 41 40 39 38 36 34 33 32 29 24 22 20 22 23 22 22 23 27 31 34 37 36 35 34 34 30 27 25 23 22 21 20 19 19 19 19 17 16
39 39 40 40 40 40 40 38 33 29 29 28 27 25 25 25 25 26 25 23 23 24 27 34 36 37 38 36 36 31 29 27 25 23 23 21 20 20 20 19 19 20 20
39 40 39 40 39 39 38 33 28 26 27 28 27 24 25 25 26 25 24 23 24 25 27 31 34 35 36 36 33 29 31 26 23 21 21 21 20 19 20 19 19 19 20
39 40 39 39 39 38 33 28 27 27 28 26 25 26 25 25 25 25 24 24 26 25 26 28 31 32 34 33 31 32 33 26 21 21 21 22 21 19 19 19 19 18 16
40 40 38 38 38 35 29 28 28 27 26 24 23 24 24 24 25 25 24 25 26 27 28 29 29 29 30 30 32 32 27 20 20 20 21 20 18 20 20 18 17 16 16
40 39 37 35 34 31 28 27 28 28 26 21 21 22 23 24 25 25 25 25 26 27 29 29 29 29 32 34 32 25 23 22 22 23 23 22 21 20 18 17 16 16 18
39 37 35 33 30 28 25 26 33 30 25 21 20 20 24 25 26 26 26 26 27 28 28 29 30 31 28 25 24 23 23 23 23 24 24 23 20 18 18 16 16 15 18
37 36 35 32 28 24 25 36 30 31 24 22 21 21 24 26 26 27 26 27 27 27 28 28 29 30 30 29 29 26 24 24 22 22 19 15 17 17 17 17 17 17 16
36 35 35 33 29 25 29 30 30 26 23 22 22 23 24 25 26 26 27 26 25 26 27 26 29 31 28 26 28 24 22 21 19 16 14 14 14 15 17 18 18 18 17
36 35 35 33 29 27 29 28 27 24 23 21 22 22 24 25 24 24 25 25 25 26 26 27 30 29 27 28 26 22 19 20 16 14 14 13 12 15 16 16 17 22 23
36 36 35 33 30 27 28 27 23 21 21 21 22 22 21 22 22 24 25 25 25 25 25 25 26 25 26 26 22 20 20 18 15 15 15 14 14 15 17 17 18 15 14
37 37 35 33 31 28 25 22 20 20 21 20 18 19 23 22 22 23 25 26 25 25 23 24 25 26 25 22 20 19 20 19 18 17 15 14 14 17 18 17 14 12 10
38 35 31 29 25 22 22 21 20 20 16 20 21 21 21 22 23 24 24 26 26 23 22 23 26 23 23 20 19 18 20 21 19 17 14 12 17 17 16 15 14 14 13
36 32 25 22 22 22 22 20 18 14 20 21 21 21 23 24 24 26 27 26 25 22 25 26 26 24 22 22 19 19 21 21 18 16 15 12 16 15 15 14 14 15 15
30 25 22 22 22 22 20 13 13 20 22 23 23 24 26 27 25 27 27 27 25 23 26 29 27 24 25 21 20 19 20 20 19 18 17 16 14 15 14 13 14 14 16
23 21 22 23 23 19 17 15 18 24 24 24 25 26 27 27 26 26 26 25 24 23 23 22 23 22 25 24 21 19 19 21 20 19 18 16 14 13 11 11 13 13 13
18 19 27 31 20 19 21 22 24 25 25 25 25 26 25 26 27 28 27 26 24 23 22 22 21 20 20 22 23 24 22 23 21 19 18 16 16 14 12 11 11 11 10
30 33 29 17 17 21 22 23 25 26 25 25 26 25 25 25 25 26 27 28 24 23 24 23 22 23 24 24 25 23 22 22 20 18 19 16 15 12 11 10 11 11 8
34 26 21 20 20 25 26 27 26 26 28 27 26 26 26 26 26 26 27 27 24 25 24 24 25 28 28 26 23 22 21 22 19 17 17 17 17 16 12 12 11 11 9

GFSMW_sfc_30mbdewp_021.txt.gz
Dewpoint
46 50 51 51 51 54 57 60 59 60 59 56 55 54 49 48 47 44 44 44 43 42 42 40 40 41 41 41 40 40 39 32 30 30 31 30 31 30 27 26 29 31 29
46 50 52 53 53 55 57 59 58 58 57 54 51 49 48 45 43 43 43 42 41 41 39 42 41 40 39 37 35 35 35 32 30 30 30 26 24 24 26 26 26 28 27
46 50 52 54 55 56 57 56 56 55 51 50 49 48 46 44 41 42 40 41 42 41 40 40 39 38 35 32 33 34 35 31 30 29 27 24 21 24 25 23 23 28 25
46 50 52 54 55 55 55 53 51 50 50 45 42 42 41 41 42 40 41 41 41 41 39 37 37 36 35 34 33 31 34 32 29 29 28 28 27 24 20 18 18 20 19
47 49 51 51 51 50 49 48 47 43 43 44 44 43 42 41 40 39 37 35 31 28 27 26 28 35 36 34 35 35 33 32 32 29 29 24 22 20 17 15 15 15 15
47 44 45 46 46 46 46 44 41 42 43 43 43 42 39 36 33 30 25 23 21 21 21 23 26 28 33 35 34 34 34 34 33 27 25 22 19 17 17 16 17 17 15
42 39 40 40 42 43 43 42 41 42 42 39 36 36 34 27 25 23 21 22 21 21 22 26 28 30 30 33 33 35 35 36 29 26 25 22 21 22 20 18 18 17 17
38 37 37 38 40 42 42 40 41 39 37 35 32 28 27 27 24 24 25 23 22 22 24 26 30 32 32 33 37 35 37 34 31 28 26 26 24 23 22 21 20 19 18
37 37 38 39 41 42 41 41 39 35 32 30 32 30 28 27 27 27 26 23 23 22 22 26 27 30 31 34 38 37 37 31 29 31 28 27 25 24 24 21 20 19 21
37 37 38 41 42 41 42 40 35 31 32 33 31 31 28 27 27 27 26 24 24 25 25 25 25 27 29 35 34 33 31 31 32 32 26 23 24 26 23 20 19 18 20
38 38 40 40 41 41 40 37 31 33 33 30 29 28 26 27 27 27 26 24 25 25 24 25 26 27 26 27 28 29 32 31 31 30 24 25 25 24 22 21 19 18 17
37 39 40 40 40 40 37 33 33 34 30 28 26 26 26 25 25 26 26 25 25 25 24 25 26 25 25 26 29 30 32 31 27 24 25 24 22 22 21 18 17 17 16
38 39 40 40 40 39 35 32 34 33 29 28 25 24 25 25 25 26 25 25 24 25 24 25 25 25 28 31 27 24 24 24 25 26 23 23 23 22 17 17 17 16 14
38 40 40 39 39 39 34 32 33 34 32 28 21 21 23 25 26 26 25 26 25 25 25 25 25 25 26 26 27 27 26 26 25 26 25 23 20 17 18 16 16 15 16
38 39 40 38 37 37 33 31 33 37 31 24 22 21 23 26 26 25 25 25 26 25 24 24 24 25 29 29 29 27 27 25 25 23 21 17 17 17 17 16 16 16 15
37 39 39 37 36 34 31 29 36 33 30 25 24 23 23 25 25 23 25 24 24 24 24 24 24 25 30 27 26 23 22 22 22 20 16 15 15 15 16 18 19 19 16
36 38 37 37 36 33 30 28 34 30 27 24 23 23 23 24 22 21 20 21 23 25 24 24 25 27 28 28 25 21 20 21 19 17 15 15 13 15 16 17 17 18 20
35 36 37 37 37 35 30 33 29 27 25 23 23 23 22 17 18 19 20 21 23 24 24 23 25 25 27 26 22 21 21 21 19 17 17 16 15 17 19 17 15 14 12
35 36 37 37 37 33 30 29 27 24 25 24 21 18 17 19 19 19 20 22 24 25 24 23 23 23 27 24 22 19 21 21 20 19 17 16 13 18 18 16 15 13 11
35 36 37 37 36 32 28 25 27 29 22 19 18 18 18 18 18 20 22 23 25 24 23 21 22 24 27 24 21 19 22 21 20 19 17 15 16 17 16 16 15 14 13
36 37 37 35 32 25 26 27 23 24 18 19 19 18 19 20 22 23 24 25 25 25 25 25 26 26 26 25 21 20 21 22 21 19 17 17 18 16 15 15 14 16 14
37 36 32 28 25 24 30 32 27 18 21 23 22 22 21 24 24 25 25 25 25 25 25 28 28 27 26 24 22 21 20 21 20 20 19 20 19 15 15 14 13 13 15
32 29 25 24 30 34 31 21 19 24 24 24 24 23 24 25 25 25 25 26 25 25 25 25 28 26 25 28 24 23 21 21 22 21 20 20 19 15 15 12 12 15 13
23 24 30 34 32 28 20 21 26 27 25 24 23 25 25 24 25 24 24 26 27 26 25 25 25 24 21 21 26 26 24 22 23 24 22 20 20 18 18 18 14 14 13
32 34 31 26 23 24 25 27 27 26 25 26 27 26 28 27 26 25 25 26 27 28 26 26 27 27 27 23 26 26 27 26 24 21 20 19 19 17 16 15 14 15 14
27 26 29 26 25 28 27 27 28 29 29 28 28 28 27 26 26 25 25 27 28 28 25 24 26 30 28 27 26 25 24 21 22 20 18 18 22 19 17 15 14 14 14

GFSMW_sfc_30mbdewp_024.txt.gz
Dewpoint
45 47 47 47 46 57 60 60 60 61 60 59 58 55 55 52 50 47 47 45 45 43 43 45 45 45 44 44 42 40 39 39 38 35 34 33 32 32 29 31 31 31 29
44 49 50 51 51 57 60 60 60 60 59 59 57 54 51 50 47 46 45 44 44 43 43 43 43 43 42 39 40 38 38 38 37 33 32 30 29 29 30 30 29 27 30
46 48 51 53 54 59 60 59 59 59 59 56 52 50 47 46 44 45 44 43 43 43 42 41 41 40 39 38 39 38 37 36 34 34 32 29 28 30 30 26 26 25 27
45 48 51 53 58 58 58 58 57 57 53 50 48 46 44 44 44 44 44 43 42 40 37 35 37 40 40 39 40 36 38 36 33 33 33 32 31 26 23 23 21 22 21
43 48 51 55 56 57 57 57 53 50 48 46 47 46 45 44 43 41 37 35 31 28 27 29 33 34 34 38 39 39 37 36 34 34 32 29 28 26 23 19 20 20 22
45 48 51 52 52 53 51 50 45 44 45 46 46 44 40 37 35 30 28 27 26 27 29 30 32 34 35 36 39 38 38 37 38 37 32 28 25 22 23 21 21 21 21
46 49 49 48 48 49 48 45 43 44 45 44 41 38 32 32 31 30 28 26 26 26 29 29 31 33 35 36 38 38 37 38 38 36 31 28 28 26 25 25 24 23 24
47 45 46 45 46 46 45 43 43 43 41 39 35 33 32 32 32 31 27 27 26 27 27 30 31 32 34 35 37 38 37 38 38 35 35 31 31 29 27 25 24 23 22
42 41 41 43 44 44 45 44 42 40 38 35 35 34 32 31 31 30 29 28 27 25 28 29 30 30 31 34 33 39 39 39 37 35 34 33 32 30 29 29 26 23 21
40 39 38 41 43 44 44 44 42 38 35 35 37 34 32 32 31 30 29 27 27 28 29 29 29 30 30 30 33 35 34 34 35 35 35 35 33 29 30 28 26 24 22
39 38 38 41 43 44 44 44 40 34 34 36 35 33 34 31 30 30 29 27 27 28 27 28 28 28 29 29 31 32 32 32 33 34 34 35 31 28 27 26 24 22 21
39 38 39 41 42 43 43 42 37 34 36 34 31 32 32 30 31 29 28 28 27 28 27 27 27 28 28 29 31 32 30 30 30 28 29 28 26 26 26 24 21 21 19
39 39 40 41 41 42 43 40 35 36 35 32 31 30 30 29 28 28 29 28 28 27 28 27 28 28 28 30 30 30 28 28 28 29 28 27 26 24 22 21 18 18 18
38 38 40 41 41 42 42 39 35 37 34 32 31 28 28 29 28 29 29 28 29 28 28 28 28 28 27 27 29 28 28 29 28 28 27 25 23 19 18 16 16 16 18
35 36 40 41 41 41 41 38 36 36 36 35 30 27 26 26 28 29 29 28 29 28 28 27 27 27 28 29 30 28 27 28 26 26 24 21 16 17 17 15 17 19 19
28 34 38 42 41 40 41 38 35 36 38 36 30 26 25 26 28 29 27 27 27 27 27 27 27 28 29 27 25 22 22 24 23 22 20 18 17 20 19 20 20 20 18
30 33 37 40 41 40 39 36 34 37 37 31 27 26 26 26 27 24 22 22 24 27 27 28 27 26 29 27 23 20 21 23 23 21 19 18 16 21 20 19 18 18 18
32 34 36 39 39 39 37 34 32 35 32 27 26 28 27 22 21 22 23 23 25 26 27 27 27 26 29 27 23 20 19 24 23 21 20 19 18 20 19 18 17 17 16
31 32 35 37 38 38 36 32 33 29 27 29 30 29 20 21 21 22 23 24 25 26 28 27 26 25 27 26 23 19 22 24 23 22 21 20 17 20 18 17 17 16 14
31 33 35 37 38 36 32 29 30 31 31 28 25 24 21 23 25 24 25 26 26 27 27 26 26 25 29 26 23 20 23 23 23 22 20 18 17 17 18 17 17 16 17
35 37 37 33 27 28 30 30 32 31 32 30 25 25 27 26 25 25 26 27 28 27 28 27 27 27 29 26 24 22 21 23 23 22 21 22 20 20 18 16 17 17 16
36 31 27 30 33 34 34 33 31 29 30 27 27 28 28 26 25 27 28 28 28 28 28 28 28 29 28 27 26 24 22 22 21 22 23 23 21 20 19 17 17 15 17
26 26 32 35 34 33 32 30 28 26 28 30 30 29 27 26 26 26 26 26 27 29 28 28 28 30 29 29 27 25 24 23 21 23 24 22 22 22 20 18 16 16 16
27 33 33 31 29 28 28 28 29 30 30 30 28 26 27 27 27 27 26 26 26 28 29 29 27 27 27 27 28 26 25 24 23 23 24 24 21 20 20 19 21 19 18
32 30 28 30 32 31 30 29 30 30 28 27 28 29 29 29 29 28 27 26 27 27 27 28 29 29 29 28 27 30 30 29 27 25 22 21 21 21 19 19 18 17 18
31 31 31 30 30 30 28 28 28 29 29 29 30 30 29 29 28 27 27 27 27 28 28 28 26 30 30 28 26 26 25 25 23 21 21 20 21 22 21 19 18 16 16

GFSMW_sfc_30mbdewp_027.txt.gz
Dewpoint
43 42 43 49 54 57 58 60 58 59 58 57 56 56 56 54 51 48 47 46 44 44 44 44 45 43 42 40 40 39 38 36 39 34 31 30 33 29 31 31 28 27 29
45 46 48 51 57 57 60 60 59 59 59 57 57 56 54 51 46 46 44 44 43 43 43 43 42 40 38 38 39 38 36 39 36 31 32 30 30 31 30 29 26 26 27
46 48 49 54 59 60 60 60 59 59 59 58 58 53 49 46 45 44 44 43 43 42 42 41 40 39 39 38 38 38 38 35 34 34 32 30 29 29 29 24 25 23 22
48 49 51 53 59 60 60 60 60 58 59 59 50 46 44 43 45 45 44 43 44 37 32 32 33 33 36 36 40 39 38 36 34 33 35 31 31 25 24 24 22 22 21
48 50 52 57 59 59 59 59 58 58 57 53 47 46 44 44 44 42 37 28 29 29 30 32 31 32 34 35 36 38 38 37 35 36 34 31 28 27 22 21 22 23 23
48 51 55 56 57 58 58 57 53 47 47 47 46 44 43 36 31 28 27 26 29 30 31 29 31 32 34 35 37 39 37 37 37 36 35 33 27 24 24 23 23 23 24
49 52 54 54 54 52 51 46 45 46 43 40 38 37 34 30 29 29 28 26 26 27 27 28 30 31 33 35 38 37 37 37 36 36 34 33 30 29 27 26 25 24 24
49 51 50 50 49 47 44 43 45 43 40 38 32 32 32 31 32 30 29 28 27 27 29 29 29 30 31 31 36 37 37 37 37 37 36 35 33 32 31 28 26 24 23
48 48 48 48 47 45 44 44 44 41 39 35 32 32 32 32 32 30 29 28 28 26 28 29 29 30 30 30 31 33 38 38 38 37 36 34 34 35 35 32 29 26 22
44 45 46 46 46 45 45 44 43 40 36 34 34 33 32 33 32 31 29 27 28 27 28 28 29 29 29 30 31 33 33 33 34 35 35 36 35 35 35 31 27 25 24
41 42 43 44 45 45 45 44 41 38 34 36 35 33 32 34 32 31 30 28 28 27 28 27 27 27 28 30 31 32 31 31 32 32 34 34 34 33 32 27 24 21 19
40 40 41 43 44 44 44 44 38 35 37 37 35 33 33 34 31 32 30 29 27 28 27 28 27 28 29 30 31 31 30 28 28 29 28 28 27 26 26 22 19 17 18
40 39 40 42 44 44 44 43 35 34 36 34 32 31 33 32 31 31 30 29 28 28 28 27 27 28 29 29 31 30 28 28 29 29 28 27 25 24 20 18 16 17 17
40 38 40 42 43 43 44 42 36 37 34 32 31 31 32 31 30 30 30 28 29 29 28 28 28 28 29 31 30 29 29 29 29 28 27 25 21 17 16 15 15 17 18
37 40 40 41 42 43 43 41 38 37 34 33 32 31 31 33 31 30 30 30 29 28 28 28 28 28 31 30 29 26 26 24 24 25 24 20 18 19 17 15 16 18 18
29 33 42 42 42 43 42 40 38 37 35 35 34 33 30 30 30 29 27 27 28 27 29 29 28 29 29 29 26 23 22 23 23 22 20 19 19 21 22 22 21 21 20
32 35 40 43 42 43 42 39 37 38 38 38 35 31 29 28 25 24 23 23 23 27 28 29 29 27 29 28 25 20 21 21 24 22 20 19 22 20 19 19 18 17 17
32 33 35 39 43 43 42 37 37 38 36 32 31 28 27 26 27 25 24 27 29 27 27 28 28 29 29 28 24 20 19 23 24 22 21 20 20 20 18 17 16 16 17
31 32 36 39 38 39 36 34 33 33 33 31 26 25 25 25 27 27 29 30 28 26 27 28 28 28 29 28 24 20 22 24 24 23 22 22 19 20 19 17 16 16 17
35 29 29 30 30 31 31 30 30 31 30 29 29 30 30 30 29 31 30 27 27 28 29 26 26 27 27 28 25 21 21 22 23 23 21 19 18 18 19 19 16 15 15
30 33 33 33 33 33 33 32 32 32 32 32 33 33 31 32 31 28 27 28 28 28 28 29 27 27 27 27 26 24 22 21 23 22 21 20 20 21 21 20 17 16 18
33 33 33 33 33 33 31 32 32 32 34 34 33 31 31 31 29 28 27 27 26 26 27 28 28 28 28 27 28 27 24 23 21 21 22 23 24 22 22 22 21 20 20
34 32 30 29 28 28 31 30 30 33 32 31 31 31 31 30 28 26 26 26 26 26 27 27 29 29 29 29 28 28 26 24 21 21 22 24 23 23 24 24 23 21 18
32 31 29 28 29 30 30 30 30 31 30 30 30 30 28 28 28 28 28 27 26 26 25 25 28 29 32 29 29 27 27 25 23 22 23 24 24 23 21 21 21 20 19
29 31 31 32 32 31 30 30 30 30 29 28 28 29 29 29 29 30 29 27 27 26 25 25 25 26 29 31 30 27 26 25 24 22 22 23 21 19 21 20 19 19 18
32 31 30 30 30 30 30 29 29 29 29 29 29 29 29 28 28 28 28 29 29 30 29 29 29 27 28 30 31 32 31 29 29 25 23 21 18 19 20 21 19 18 17

GFSMW_sfc_30mbdewp_030.txt.gz
Dewpoint
50 51 57 58 56 56 58 58 58 57 56 55 55 56 55 54 53 52 48 45 45 45 44 44 42 41 39 38 39 38 36 36 37 33 32 31 33 31 31 28 27 24 26
43 48 54 55 55 56 58 58 58 57 56 56 56 56 55 52 50 47 45 44 44 44 43 42 41 40 38 37 37 38 36 38 35 32 33 29 30 30 29 26 27 23 24
42 45 50 54 55 56 58 58 58 58 56 55 56 54 50 47 45 44 44 43 43 42 42 41 40 40 40 39 39 39 37 35 35 34 31 29 28 29 28 25 24 22 22
43 48 50 54 56 58 59 59 59 58 57 56 56 53 49 44 44 44 44 44 43 37 35 33 33 33 34 34 36 39 38 37 34 34 34 32 30 26 25 24 22 23 22
45 49 54 57 57 59 59 59 59 58 58 58 54 51 47 45 45 44 42 35 31 33 32 31 32 34 35 35 35 37 38 37 35 35 35 33 30 28 25 21 21 24 25
48 50 56 59 59 59 59 59 59 58 57 58 51 49 45 44 42 39 31 28 31 32 31 32 32 31 33 35 36 38 37 37 37 36 36 34 31 26 24 23 23 24 25
49 53 56 58 59 59 58 58 55 51 49 52 47 45 42 39 36 31 28 29 29 29 28 30 30 31 32 32 36 37 36 36 36 36 35 34 32 30 28 27 26 24 25
51 53 55 56 57 57 56 51 47 43 42 42 40 36 33 32 31 31 30 29 29 29 29 29 29 30 30 29 31 33 35 37 37 37 36 35 34 33 31 32 32 30 27
52 52 53 53 52 49 47 46 43 40 37 36 35 33 33 33 32 30 30 30 29 29 30 29 28 29 29 29 31 32 34 38 36 35 35 35 35 35 36 36 36 31 26
50 50 50 49 48 46 45 45 42 40 37 34 33 32 33 33 31 31 29 29 29 28 28 28 28 27 27 29 31 32 32 32 33 34 34 35 36 36 35 34 30 28 26
49 49 49 48 46 44 44 44 41 38 37 34 33 33 31 33 33 32 30 29 28 28 28 28 27 27 28 29 31 31 31 30 32 31 32 35 34 34 33 30 25 20 19
47 48 48 47 46 45 45 43 41 37 34 34 34 33 33 34 33 32 30 30 28 29 28 28 27 27 28 28 30 31 31 28 27 29 29 29 32 28 26 22 19 17 17
43 45 45 46 45 45 45 44 40 37 36 36 34 33 32 34 31 32 32 30 29 28 29 27 27 27 28 28 30 32 31 29 29 29 28 27 26 24 22 19 17 17 17
42 41 43 44 45 45 44 44 38 37 37 35 34 32 33 34 31 32 32 31 29 29 29 28 28 29 29 29 30 29 29 29 29 29 27 25 23 18 17 16 15 16 17
42 40 40 41 43 44 44 40 38 39 36 35 33 32 33 33 33 33 31 30 30 29 29 29 30 30 30 31 30 28 27 25 24 24 21 20 20 21 18 16 17 18 18
32 36 40 41 43 44 44 41 39 38 36 34 33 34 33 34 33 31 30 26 25 25 27 27 30 29 30 29 30 27 24 23 23 22 20 19 21 21 23 23 22 20 17
35 40 41 42 43 44 44 43 40 38 36 36 35 34 32 29 28 27 26 27 29 29 28 28 29 29 30 29 29 25 22 22 22 23 20 19 22 21 19 19 18 17 16
32 35 39 43 43 44 43 40 40 39 37 33 31 30 30 29 30 30 32 33 32 29 28 27 28 29 30 30 29 23 21 21 24 23 21 20 20 20 19 18 17 17 16
32 31 32 33 34 37 37 35 33 29 28 28 30 30 31 33 35 35 34 32 31 28 27 29 29 28 29 30 28 22 20 21 23 24 23 22 20 21 21 18 18 17 15
33 32 33 32 32 32 32 31 31 31 32 32 33 35 36 36 35 35 32 30 28 28 29 28 28 28 27 30 28 24 21 21 23 23 22 20 19 21 20 20 19 16 14
33 33 32 32 32 33 33 33 33 33 36 38 38 38 37 36 33 32 30 29 28 27 26 27 28 29 28 27 29 27 22 22 22 23 22 21 22 21 22 22 20 17 17
33 33 32 32 32 34 34 34 35 36 36 37 37 35 32 31 30 30 28 27 26 26 26 26 26 26 29 28 28 29 26 23 22 22 23 23 23 23 24 23 23 23 23
30 29 29 30 31 31 32 32 34 35 33 32 31 30 30 30 30 27 26 26 26 26 26 26 25 25 28 30 29 29 29 26 23 23 22 22 24 25 24 24 23 23 22
29 29 29 31 31 31 30 30 30 30 30 29 29 29 29 28 29 28 28 28 27 26 26 26 25 25 26 28 30 31 31 29 25 23 24 23 23 24 23 22 21 21 20
32 32 32 31 30 30 30 30 29 29 28 28 28 28 28 29 29 29 29 29 28 27 26 26 26 26 26 26 29 29 29 28 28 25 23 22 21 21 23 21 21 20 19
31 30 30 30 30 29 29 29 29 29 29 28 28 28 27 27 28 28 28 29 29 29 29 29 27 27 28 28 29 31 31 30 29 24 23 23 21 21 21 19 19 20 19

GFSMW_sfc_30mbdewp_033.txt.gz
Dewpoint
53 56 56 57 59 59 58 59 57 57 56 55 55 55 54 54 53 53 47 48 48 46 45 43 42 41 39 38 38 37 36 36 35 33 32 32 32 30 29 27 24 24 24
54 56 57 58 59 58 58 58 57 57 55 55 55 56 55 54 52 50 46 46 45 45 43 42 41 39 38 38 38 37 36 38 35 32 32 29 30 31 30 27 24 22 24
52 54 56 57 57 57 57 58 58 57 55 55 56 54 50 49 47 45 44 44 44 43 43 41 40 39 39 36 37 38 37 35 35 34 32 30 27 29 29 26 23 22 23
48 50 54 56 56 55 57 58 58 57 56 55 55 53 51 49 45 44 43 44 43 40 36 34 34 34 34 34 36 37 37 37 35 34 35 32 30 28 27 26 23 24 23
44 46 52 55 55 56 57 58 58 58 57 55 55 53 50 46 45 44 43 34 34 33 32 33 34 33 34 35 35 37 38 38 35 34 34 34 32 30 28 25 23 24 25
43 46 48 53 55 57 58 58 58 58 58 56 55 54 49 45 43 42 36 31 33 32 32 32 32 33 33 31 36 37 37 37 37 36 36 34 32 29 26 25 24 24 25
46 50 53 55 56 57 58 58 58 58 58 57 55 51 48 45 43 40 33 32 30 30 30 31 31 30 30 30 33 35 36 36 36 35 35 35 33 31 29 27 27 27 26
47 52 55 57 57 57 58 58 58 55 54 55 53 47 45 44 43 39 35 32 30 30 31 30 31 30 30 29 30 31 32 36 36 36 36 36 35 34 32 30 32 32 30
49 53 56 57 58 58 58 57 54 51 48 48 45 42 42 41 40 36 32 31 32 30 30 30 29 30 29 29 30 31 32 37 36 35 35 35 35 35 35 36 35 33 27
51 53 55 56 56 56 53 52 49 47 42 41 40 38 37 36 33 32 31 30 30 32 30 29 29 28 28 28 30 31 32 32 32 33 33 33 35 36 36 35 33 33 30
50 52 53 53 53 51 50 49 44 40 39 39 37 35 34 34 32 30 30 30 32 31 29 29 28 27 27 29 30 30 31 31 30 32 31 32 34 34 34 33 29 25 25
50 51 51 50 49 50 48 46 42 39 38 38 37 35 34 33 32 31 31 32 29 30 30 29 28 28 28 28 29 29 30 31 28 29 29 30 33 33 29 26 22 20 18
48 49 49 49 48 47 46 45 43 40 38 38 36 34 34 33 33 32 31 31 29 30 29 29 28 28 28 28 29 29 30 31 29 29 29 28 27 26 25 22 19 17 17
46 47 48 48 47 46 45 45 43 39 39 38 36 35 34 34 33 33 32 32 31 30 29 29 28 29 29 29 29 30 30 29 29 30 29 28 26 24 20 19 17 16 16
44 43 45 46 47 47 46 45 42 41 41 38 37 37 35 36 34 34 34 33 31 30 30 29 29 30 31 30 30 30 29 28 27 27 25 23 20 20 18 16 15 17 18
41 42 42 43 44 45 45 43 42 41 40 38 37 36 36 36 35 33 31 29 30 31 30 31 31 31 30 30 31 30 28 26 24 23 22 19 21 23 22 22 23 20 18
37 39 41 41 42 44 45 42 41 40 38 37 37 35 32 30 29 30 32 33 34 35 33 31 28 28 30 30 31 30 27 25 23 23 22 20 20 22 24 24 21 19 19
34 34 36 41 43 44 42 40 39 38 36 33 31 31 31 33 34 34 35 36 36 35 33 29 29 29 29 30 31 30 25 22 22 23 22 21 20 22 20 18 17 17 18
32 32 33 33 34 34 34 31 30 30 31 31 33 35 36 36 37 36 36 35 34 32 29 29 28 28 28 29 31 29 23 21 21 24 23 22 21 22 23 20 18 18 18
32 32 32 32 31 31 32 31 31 31 33 34 36 38 38 37 36 36 35 33 31 28 29 27 27 28 29 29 31 30 23 21 22 23 24 25 22 21 24 21 19 19 18
32 32 33 33 33 33 33 33 35 36 38 39 39 38 38 37 36 34 33 31 29 28 26 26 26 26 27 28 29 31 25 23 23 23 23 23 23 23 23 22 22 21 19
31 32 32 33 34 35 35 36 36 37 37 38 37 36 35 33 31 30 30 28 27 26 25 25 26 26 26 27 29 30 31 25 24 23 24 24 24 24 23 24 24 24 23
28 29 30 30 31 33 34 34 34 34 33 31 30 30 30 30 30 29 27 26 26 26 26 26 26 26 26 26 28 30 30 30 27 28 25 24 25 25 25 26 26 25 23
28 30 31 30 30 30 30 30 30 30 29 28 28 28 28 28 28 28 28 28 27 27 27 27 26 26 26 26 26 27 28 30 31 29 27 25 26 25 25 24 24 23 21
32 32 31 30 30 30 29 29 29 29 28 28 28 28 28 27 27 28 28 28 28 28 27 27 26 26 25 25 26 26 27 28 30 30 26 24 24 23 22 22 22 22 20
31 30 30 29 28 28 29 30 31 30 29 29 29 29 29 28 28 27 27 28 29 29 29 29 28 28 28 27 27 29 30 31 31 26 24 23 23 22 22 21 21 20 19

GFSMW_sfc_30mbdewp_036.txt.gz
Dewpoint
52 52 54 55 56 58 59 59 58 57 57 57 57 56 55 55 54 54 52 52 49 46 46 44 42 41 39 38 37 37 35 37 35 33 33 33 32 31 29 27 24 24 23
51 51 55 55 56 58 59 59 58 57 56 56 55 55 54 53 53 50 47 49 47 45 44 42 41 39 38 38 38 37 37 37 35 32 32 30 30 30 30 27 25 23 24
52 53 55 55 56 58 58 58 58 57 56 55 55 53 51 50 49 46 44 46 45 44 43 41 40 39 37 35 37 37 36 34 35 34 32 29 28 30 30 27 24 22 23
51 53 55 56 56 57 58 58 58 57 55 55 54 53 52 50 48 45 44 44 44 42 40 36 34 34 35 34 35 37 37 36 34 35 35 32 31 29 29 28 26 24 24
46 51 54 56 57 57 57 58 58 57 56 55 55 53 52 51 47 44 43 39 37 35 34 34 34 34 34 34 36 37 37 37 35 34 34 34 33 31 29 28 25 24 25
43 47 51 54 57 56 56 57 57 57 57 56 55 54 51 48 46 43 38 35 34 33 33 32 31 31 32 33 36 37 36 36 36 36 35 34 32 31 29 26 26 26 26
43 44 47 51 54 55 56 57 57 57 57 56 55 54 51 48 46 43 37 33 32 32 32 31 32 32 31 33 34 33 35 35 35 35 35 36 34 32 30 29 28 27 28
43 44 47 49 53 55 56 57 57 57 57 57 56 54 53 49 46 43 37 35 33 33 32 32 34 36 32 30 30 30 31 33 35 35 36 36 36 35 33 31 29 30 31
42 45 49 51 53 55 56 57 57 57 57 57 55 53 51 49 46 42 39 35 33 32 33 39 36 32 30 29 29 29 29 33 36 36 36 35 35 35 35 34 34 34 27
45 48 52 54 55 56 56 57 58 57 54 53 52 50 48 47 46 41 37 35 32 32 37 33 30 30 29 29 29 30 32 34 33 33 33 33 33 34 35 35 35 35 31
47 50 53 56 56 56 56 56 55 53 49 48 47 45 44 45 43 41 36 33 32 35 35 30 30 29 28 29 29 30 31 31 31 31 32 31 32 34 34 33 32 30 30
47 51 53 54 54 55 53 53 51 48 45 43 42 42 41 41 39 36 31 32 32 35 31 32 30 29 28 29 29 29 30 30 30 30 29 30 33 33 33 31 29 25 23
48 50 51 51 52 51 50 50 47 44 42 42 41 42 38 37 33 32 32 33 33 32 32 31 29 29 29 29 30 29 29 29 30 29 29 28 28 28 28 26 24 21 18
46 48 49 50 49 49 49 48 46 42 41 41 41 38 37 35 34 34 33 33 31 31 30 30 30 30 30 31 30 29 29 30 30 30 29 29 28 27 26 24 21 19 17
45 46 47 48 48 48 47 46 45 42 42 40 38 36 37 36 35 35 33 33 32 31 31 31 34 35 35 31 30 30 30 30 29 29 29 29 27 27 22 18 17 16 16
42 42 43 45 47 47 47 46 44 42 41 40 38 38 37 36 35 34 33 31 32 34 37 37 36 36 32 30 31 31 30 29 28 26 26 24 24 25 26 26 21 17 18
36 37 41 42 43 44 46 44 42 42 40 39 39 37 35 32 32 33 35 36 37 37 37 36 35 34 31 29 30 31 30 28 27 25 24 22 20 21 22 24 25 24 23
33 34 35 37 38 40 40 39 39 37 34 33 33 34 34 36 36 37 37 37 37 37 36 35 34 31 30 29 29 31 31 28 26 25 23 22 21 21 22 22 21 19 18
32 33 32 32 32 32 32 32 32 32 33 35 36 37 38 37 37 37 37 37 37 35 34 33 30 28 27 28 29 31 30 27 25 23 23 23 22 22 25 21 19 18 18
32 32 32 32 32 31 32 32 33 35 36 37 38 38 38 38 37 37 36 35 36 34 31 29 28 27 27 27 28 30 30 27 25 23 24 25 23 23 25 24 21 19 18
33 33 33 32 33 33 35 36 37 37 38 39 39 38 38 38 38 37 36 34 32 30 28 27 26 26 27 27 27 28 30 28 26 25 24 24 25 27 25 26 22 20 20
32 33 33 34 35 36 36 36 36 37 38 38 37 36 35 33 31 31 30 30 29 27 26 26 26 27 27 27 27 28 30 30 27 26 25 25 25 29 26 26 25 23 24
30 31 31 31 31 32 33 32 32 31 30 29 28 28 29 29 29 28 28 27 27 26 26 26 27 27 27 27 27 28 29 30 30 28 27 27 29 30 29 27 25 25 25
30 30 30 29 29 30 30 30 30 29 28 28 28 28 28 28 28 28 28 27 27 26 27 27 27 27 26 26 26 26 25 26 28 29 29 29 29 28 29 27 28 27 25
31 31 30 29 28 29 30 30 30 29 29 29 29 28 28 27 27 27 28 28 28 28 27 27 27 27 27 27 27 26 24 25 26 27 29 28 26 25 25 25 25 25 23
30 29 28 29 29 27 27 28 29 29 28 27 28 27 27 27 27 27 27 28 28 29 30 30 30 30 30 30 30 30 31 31 31 28 27 25 24 24 24 23 23 23 23

GFSMW_sfc_30mbdewp_039.txt.gz
Dewpoint
53 52 53 54 54 56 57 58 59 60 59 58 57 57 58 59 59 59 59 57 53 50 49 47 45 44 42 40 41 39 39 37 38 35 34 35 34 33 30 28 26 26 26
53 52 53 54 54 54 56 59 59 59 59 58 57 57 57 57 56 55 54 55 51 49 48 45 43 42 41 41 41 40 37 38 38 32 32 26 30 32 33 31 29 28 27
52 51 52 53 54 54 56 58 59 59 58 58 57 55 54 53 53 50 50 51 49 47 46 45 42 42 41 39 38 38 37 33 37 38 30 25 22 30 33 33 30 29 28
51 52 52 53 54 55 56 58 59 58 58 58 56 55 55 53 52 49 48 47 47 45 44 43 42 39 37 36 36 37 37 37 32 37 35 36 34 26 25 30 31 31 29
48 51 52 53 55 56 58 58 59 58 58 57 57 56 55 54 52 48 47 46 45 44 41 39 37 36 35 37 38 39 39 39 37 33 35 36 35 34 29 23 25 27 27
46 48 52 54 55 57 58 59 58 58 58 57 57 56 55 52 50 47 44 43 41 39 37 36 35 35 35 36 39 39 39 38 37 36 36 32 29 28 28 26 26 27 28
45 46 48 52 54 57 58 58 58 58 58 57 56 55 54 52 50 47 44 41 38 37 36 35 35 34 34 36 37 39 37 38 36 36 34 36 34 34 32 30 27 27 26
44 45 46 48 53 56 57 58 57 57 58 57 56 56 54 52 51 48 45 41 39 37 35 34 35 35 36 36 36 35 35 35 36 36 37 36 36 36 34 30 29 27 26
41 43 45 47 51 55 56 57 57 57 58 58 57 56 55 53 51 48 45 42 39 37 36 36 37 38 36 33 33 33 33 35 37 37 38 37 34 35 34 34 33 30 28
39 43 45 48 50 54 56 57 57 57 57 58 57 56 56 54 51 47 44 43 39 36 36 38 40 35 34 33 32 32 33 34 36 36 35 35 33 34 34 33 34 34 33
42 45 48 52 53 54 55 56 56 57 57 56 56 55 53 53 51 48 45 42 39 36 35 39 35 33 31 31 32 32 32 33 33 34 34 33 34 32 33 35 34 32 33
41 47 50 53 55 55 56 56 56 56 55 54 52 52 51 50 48 47 45 42 39 36 35 36 33 33 31 31 31 31 34 32 31 32 32 32 31 33 33 33 32 30 28
44 48 51 52 53 54 54 54 54 53 50 48 48 48 47 47 48 47 45 41 37 35 36 34 31 33 31 31 32 37 35 31 31 31 31 31 31 30 31 31 29 27 26
43 48 50 50 51 52 52 52 50 48 46 46 46 46 45 45 44 40 37 36 35 34 34 34 33 32 32 35 39 36 33 31 31 32 32 31 31 30 29 28 27 25 24
45 46 48 49 49 50 50 49 48 46 44 43 42 42 41 39 38 36 35 35 34 33 33 33 36 38 38 38 37 35 33 32 32 32 32 32 31 31 30 27 25 22 19
41 42 43 46 48 48 48 47 45 44 44 42 40 39 38 37 37 36 35 35 34 37 38 37 38 37 38 36 35 32 31 31 31 30 31 31 31 31 30 27 22 20 20
37 39 40 42 43 44 46 45 44 43 41 40 39 38 36 35 35 36 37 38 38 38 38 38 39 38 37 36 33 31 31 31 30 30 29 28 25 25 24 25 28 25 22
35 36 36 37 37 39 40 39 38 38 37 36 35 35 35 36 37 38 38 38 38 38 38 38 37 35 35 32 29 29 29 30 30 30 30 29 27 25 23 22 22 23 23
34 34 34 34 34 35 35 35 35 35 36 36 36 37 37 37 38 38 38 38 38 38 37 36 35 35 32 29 28 29 29 29 30 29 29 28 27 25 25 23 22 21 20
33 33 33 33 33 34 35 36 36 36 36 37 38 38 38 38 38 38 37 37 36 36 35 32 31 31 29 29 28 28 29 28 28 29 28 27 26 25 25 25 25 22 19
33 33 33 34 35 36 37 36 37 37 38 39 39 39 38 38 37 36 34 33 32 32 31 30 30 30 29 28 28 28 29 29 28 28 27 28 27 27 27 27 27 27 23
33 34 34 35 36 36 36 36 36 38 37 35 33 31 30 30 30 30 30 30 29 29 29 29 29 29 29 29 29 29 29 29 30 29 28 29 28 27 28 28 30 30 25
32 33 33 33 32 32 32 31 30 29 28 28 28 28 29 28 28 28 28 28 28 28 28 27 28 28 29 30 30 29 29 29 30 31 31 30 29 28 28 30 31 30 27
31 30 30 29 29 29 29 29 29 29 29 29 29 28 27 27 27 26 26 25 26 26 26 26 27 28 28 28 29 30 30 30 30 30 29 30 29 29 30 30 30 30 28
30 29 28 28 29 29 28 29 29 28 27 27 26 25 24 23 21 21 23 22 22 24 23 22 23 25 25 25 28 30 30 31 32 30 30 30 29 28 28 28 29 29 28
29 28 28 26 26 25 24 24 24 22 21 20 19 19 19 19 18 17 16 20 21 22 22 23 24 25 24 21 21 22 25 27 30 30 28 28 28 27 25 25 25 26 27

GFSMW_sfc_30mbdewp_045.txt.gz
Dewpoint
48 52 50 50 49 50 52 52 53 52 57 57 52 48 46 47 48 51 53 56 57 57 56 54 54 54 51 50 48 46 41 38 35 35 39 39 39 38 35 33 31 30 30
48 51 51 49 51 50 50 51 52 53 57 57 55 50 47 45 48 51 57 59 58 57 56 55 54 53 50 49 48 44 40 38 36 39 40 39 38 37 37 33 32 33 33
41 47 49 49 49 49 50 50 52 54 54 54 54 52 48 47 48 51 54 59 58 57 56 55 53 52 50 49 47 44 41 36 39 41 40 37 35 31 34 35 35 34 33
41 42 45 49 50 50 51 52 52 53 55 54 54 51 47 48 51 53 57 58 59 58 55 54 53 51 50 48 47 44 40 38 39 41 39 39 37 31 28 32 35 35 34
39 41 42 42 48 51 51 53 52 52 53 55 54 54 51 50 51 53 55 57 56 57 55 53 52 51 50 47 45 40 40 41 41 41 41 37 36 35 34 31 28 30 27
37 40 43 43 43 46 51 53 52 52 53 54 54 55 54 54 53 55 55 54 55 55 54 52 52 52 49 46 43 40 43 42 42 40 35 33 30 31 31 29 27 27 27
36 38 40 43 44 46 48 51 52 50 53 55 57 57 58 58 57 58 57 54 54 53 53 52 51 50 47 44 42 43 44 43 39 39 37 32 33 32 30 30 28 26 25
37 38 38 40 43 46 49 51 51 52 52 56 59 61 60 60 59 59 58 56 55 54 53 51 48 46 44 42 43 44 41 39 40 38 34 34 32 33 32 30 27 25 26
31 36 38 39 41 45 50 54 54 53 53 57 60 61 59 59 59 59 58 57 55 53 51 48 45 44 41 42 43 41 36 38 36 36 37 38 37 35 31 29 28 27 25
32 32 35 38 42 45 49 55 56 56 56 59 59 59 59 58 58 58 57 56 54 50 47 45 44 41 40 42 41 37 35 35 38 38 39 39 36 31 29 29 29 27 26
35 37 38 38 41 44 47 52 56 56 57 58 59 57 56 57 58 58 57 55 52 49 45 44 42 41 43 42 38 34 34 36 38 40 42 39 34 31 31 30 28 26 25
30 37 41 44 45 47 48 52 55 55 55 59 58 58 57 57 57 57 56 55 52 50 46 44 41 44 42 38 35 35 34 36 41 41 40 37 33 33 32 31 29 27 26
30 37 43 46 48 49 50 52 53 53 53 55 58 58 58 56 56 55 53 51 50 47 43 42 43 40 38 36 36 37 41 41 40 40 40 37 35 33 33 32 30 27 24
27 34 41 45 48 51 52 54 54 55 55 55 55 55 54 53 53 52 50 48 47 45 45 42 40 38 38 37 39 39 38 37 37 40 40 38 35 34 33 31 30 26 27
30 32 41 45 49 52 53 54 54 54 53 53 53 53 52 52 51 51 49 48 45 42 40 39 38 38 38 39 39 37 35 38 39 39 39 36 35 33 33 32 32 28 25
36 41 44 47 50 52 52 52 52 52 51 49 49 48 46 45 44 43 42 42 41 40 39 38 39 39 38 38 37 37 39 39 38 39 36 32 29 30 32 32 32 32 30
40 43 46 48 49 50 50 49 49 48 46 45 44 43 41 40 39 37 37 37 38 38 39 39 38 38 37 38 38 37 38 38 37 35 30 27 24 25 25 28 32 32 32
41 42 43 45 46 46 45 45 44 43 42 41 41 40 40 39 38 38 38 39 38 38 38 38 37 37 38 38 37 37 37 35 30 28 26 25 25 26 27 28 29 30 32
39 39 40 41 41 42 42 41 40 40 40 39 39 39 39 39 38 38 39 39 38 38 40 39 38 37 37 37 37 36 31 29 28 26 25 25 26 27 27 27 29 29 29
37 38 39 39 39 40 40 39 39 38 38 38 38 38 38 38 38 39 39 39 39 38 36 34 32 30 30 31 32 31 30 29 29 28 27 28 28 27 27 28 28 28 28
37 38 38 38 39 39 39 38 38 37 38 38 39 39 39 39 38 35 31 29 28 27 29 30 30 28 28 29 30 29 30 30 30 30 30 30 30 32 33 32 31 29 29
36 37 38 38 38 38 38 37 37 38 38 38 37 33 27 23 25 25 25 23 25 27 28 29 28 28 28 27 27 27 26 23 25 25 27 29 29 29 29 30 32 34 31
36 37 38 38 38 38 37 37 36 36 34 29 25 24 24 23 24 24 25 22 22 22 22 20 21 20 21 22 26 22 21 21 21 22 23 23 24 26 30 30 32 32 32
35 36 37 37 36 36 35 34 33 30 27 26 25 24 23 22 19 16 14 15 20 20 17 17 18 18 21 21 21 19 19 19 20 20 22 23 25 25 26 28 30 31 32
35 36 35 34 32 31 30 29 27 26 25 23 22 20 17 13 12 13 15 17 20 19 18 20 19 21 20 19 18 17 17 19 19 21 23 25 26 25 25 24 25 27 31
34 34 33 32 30 29 27 26 25 23 21 18 17 19 19 15 11 10 17 18 17 19 20 19 18 19 18 16 15 16 16 16 18 19 19 21 23 24 23 26 27 30 31

GFSMW_sfc_30mbdewp_051.txt.gz
Dewpoint
51 52 51 51 51 51 51 51 51 50 51 52 49 47 47 50 50 53 53 54 57 58 58 58 58 56 54 53 53 52 48 43 40 36 37 38 40 39 38 37 35 34 32
50 50 51 51 51 51 50 50 50 50 49 54 44 44 48 52 53 53 53 54 58 58 58 58 58 56 55 55 53 50 46 43 39 36 41 40 42 42 40 39 37 35 34
49 49 50 50 49 49 49 47 47 48 49 54 52 48 51 53 50 52 52 54 59 58 58 58 58 57 56 55 53 50 46 43 43 41 41 40 39 37 40 41 39 36 35
49 48 49 50 49 48 49 49 46 46 49 53 53 50 52 51 49 48 51 58 58 58 59 58 58 57 57 55 53 51 48 45 41 43 43 41 40 36 34 39 39 39 37
49 48 47 49 49 49 49 50 49 49 51 54 53 54 55 52 50 48 50 57 58 59 58 59 59 57 57 56 53 51 49 48 45 42 42 41 42 41 37 35 35 39 39
50 49 48 48 49 51 51 51 51 52 52 53 54 56 57 55 50 50 50 57 58 59 59 59 58 57 56 55 53 51 49 47 45 43 42 41 39 39 39 38 36 34 32
47 49 50 50 49 50 51 52 53 53 53 52 53 56 57 56 53 54 53 56 56 58 58 59 58 57 56 54 52 49 46 45 44 44 44 43 42 39 39 35 34 33 33
45 49 49 50 51 51 51 52 52 52 52 53 54 55 56 56 56 56 57 56 57 57 58 58 57 55 54 51 49 47 46 45 45 43 43 44 41 40 38 36 35 33 32
40 44 48 49 48 50 50 52 52 52 52 53 55 55 56 56 57 58 58 57 57 56 55 56 55 53 51 47 47 46 45 44 42 42 43 41 41 41 41 40 37 34 31
38 41 43 45 47 49 50 52 53 53 53 54 57 56 56 57 59 59 58 58 57 56 56 55 53 51 48 46 46 44 43 42 42 43 41 41 42 42 42 42 38 35 32
34 39 41 44 44 44 49 53 53 55 54 54 55 57 57 57 58 59 59 58 57 56 55 53 50 48 46 45 44 43 42 41 42 42 40 40 42 41 42 40 36 34 33
34 35 39 42 44 45 49 52 55 57 56 55 56 58 57 57 58 59 59 58 57 54 52 50 48 46 45 44 43 41 39 40 41 41 40 40 41 40 40 39 37 36 35
33 38 40 42 45 47 51 52 55 54 54 56 58 59 59 58 58 58 57 56 54 51 49 48 47 45 45 43 41 39 40 42 42 41 41 40 40 39 39 40 39 38 36
26 40 42 43 45 48 53 54 56 57 57 58 59 58 57 56 56 55 54 52 51 49 48 47 46 45 43 41 40 41 41 42 41 40 40 40 40 39 39 39 38 37 35
27 33 42 45 47 50 55 56 57 58 59 58 57 56 54 53 53 51 50 49 47 46 46 44 43 42 41 41 41 41 41 40 38 38 39 40 40 39 39 38 38 36 34
24 24 33 49 51 54 55 54 55 56 56 56 55 54 53 52 51 50 48 47 45 44 43 42 42 41 40 41 41 40 38 38 37 38 39 39 39 38 37 36 33 34 32
27 31 39 51 52 55 54 54 53 53 52 52 53 52 50 50 50 48 46 42 40 40 39 39 39 38 38 39 38 38 38 38 38 38 38 37 37 34 32 31 30 30 30
37 42 50 52 54 54 53 52 50 49 47 46 45 44 43 42 41 41 41 40 39 38 39 38 38 38 38 38 38 37 38 37 36 36 36 32 30 30 31 31 30 30 31
43 49 52 52 52 51 50 48 47 45 44 44 43 41 39 39 39 39 39 40 39 39 38 39 39 38 37 37 37 37 36 33 31 31 29 29 28 30 27 25 22 19 19
45 47 49 49 49 48 47 45 44 43 42 42 41 40 40 40 40 39 39 40 40 39 39 38 38 36 34 34 34 32 30 27 24 25 26 26 25 25 25 22 21 21 21
44 45 45 45 45 44 43 42 42 41 42 41 41 41 41 40 40 40 39 39 38 38 35 32 32 30 29 27 26 25 22 21 21 21 21 22 24 21 20 23 25 25 25
42 42 42 42 42 42 41 40 40 40 41 40 40 40 40 39 39 39 38 35 33 30 30 30 29 27 26 25 23 22 21 21 19 20 21 22 20 20 24 25 26 26 28
40 40 40 40 41 40 40 39 39 40 39 39 39 39 37 36 33 27 29 30 30 28 26 26 26 25 24 22 20 18 18 19 19 20 19 19 20 22 24 22 20 22 22
38 39 40 40 39 39 39 39 39 39 38 34 29 27 27 28 25 26 26 24 23 21 21 22 23 24 21 19 18 18 18 19 19 19 19 19 21 22 20 19 19 19 19
38 39 39 39 38 39 39 39 38 34 28 27 27 25 23 20 22 24 21 19 22 23 21 22 23 21 20 18 17 16 17 17 18 18 18 18 18 16 17 16 17 17 17
38 39 39 38 37 37 36 36 33 29 28 24 23 22 21 19 18 20 18 20 18 19 19 21 21 20 18 16 16 15 16 16 18 18 17 14 14 14 15 16 14 14 15

GFSMW_sfc_30mbdewp_054.txt.gz
Dewpoint
52 51 51 51 52 52 52 52 52 52 53 52 50 50 49 50 51 52 52 52 55 55 55 58 58 57 55 53 52 51 50 47 44 38 37 37 39 39 37 35 36 37 43
51 51 51 50 51 51 51 51 51 51 52 52 50 48 47 48 51 51 50 52 53 56 56 57 58 57 55 54 53 52 49 46 40 38 39 36 40 42 41 39 37 35 35
50 51 50 49 51 50 51 51 51 50 50 52 50 46 46 50 50 51 52 52 54 55 57 58 58 57 56 54 53 52 48 46 42 41 39 40 38 38 39 41 40 37 35
50 50 50 49 50 50 50 51 51 49 49 51 51 44 43 44 48 51 52 52 54 56 58 58 58 57 57 55 54 53 50 47 44 43 43 42 41 37 36 38 40 40 37
49 49 50 49 50 50 49 49 49 49 48 48 53 48 46 47 50 52 50 51 55 57 58 58 58 58 57 57 56 54 51 48 46 43 43 43 42 41 37 37 35 38 40
49 49 49 49 49 49 49 48 47 48 48 47 51 52 49 50 52 52 50 50 54 58 58 58 58 58 58 57 57 55 52 49 46 45 45 45 43 43 42 40 37 36 35
49 49 48 48 49 48 48 49 46 46 46 46 49 51 51 51 53 54 51 51 54 57 58 58 58 57 57 57 57 54 51 48 46 46 46 46 45 44 42 38 36 34 34
49 49 48 48 48 49 48 49 49 46 46 47 49 50 51 52 55 56 54 52 54 56 57 57 57 57 57 56 54 51 49 47 47 46 46 45 45 42 40 39 37 35 34
46 49 49 47 48 48 50 49 49 49 49 49 51 52 53 53 56 57 56 55 55 56 57 57 57 56 55 54 50 48 46 46 46 45 45 45 42 41 42 41 40 38 36
43 46 49 50 49 49 50 52 51 51 51 53 53 53 53 55 56 57 56 56 56 56 56 56 56 54 53 50 48 46 46 45 44 44 44 42 42 42 42 42 41 39 36
40 44 48 49 50 51 51 51 52 52 52 53 53 54 54 55 57 57 57 57 57 57 55 55 54 52 49 47 46 45 44 43 43 44 42 42 43 42 41 41 39 37 36
39 40 43 48 49 50 51 52 52 53 53 53 54 55 56 57 58 58 59 59 58 56 55 54 52 50 47 46 45 44 44 43 42 42 42 42 43 41 40 39 38 38 37
35 39 40 42 44 46 48 51 53 53 54 56 56 56 57 57 58 59 59 58 57 55 54 52 50 48 46 44 44 42 42 42 42 42 41 41 40 39 38 38 39 39 39
34 38 41 43 44 45 46 48 53 54 55 56 56 57 57 57 58 57 57 57 56 53 52 51 49 47 45 44 41 41 42 42 42 42 41 41 40 39 38 38 37 37 37
27 37 40 44 47 49 48 48 52 55 56 55 55 57 58 58 58 56 55 54 53 51 49 47 46 45 43 42 41 41 41 41 41 41 40 40 40 40 39 38 37 36 35
27 33 40 44 51 53 52 53 54 55 56 55 56 56 55 54 53 52 51 49 48 47 45 44 43 42 42 42 41 41 40 40 39 38 38 39 39 38 34 31 31 30 29
27 28 39 46 53 54 55 55 56 57 57 57 55 54 53 52 51 49 48 46 45 44 43 42 42 41 41 41 41 40 39 38 38 37 38 37 34 31 31 30 29 28 29
25 26 37 50 54 54 54 54 54 54 54 54 52 52 51 50 49 46 44 42 42 42 41 40 40 39 39 39 38 38 37 37 36 35 33 31 28 30 27 25 20 19 19
31 39 48 53 54 53 52 51 50 49 49 48 48 47 46 45 44 42 41 40 39 38 38 38 37 37 37 38 37 37 36 33 31 28 28 27 25 25 24 22 20 22 23
43 49 52 52 52 50 49 48 46 46 45 44 43 42 42 42 41 40 39 39 38 37 38 38 38 37 37 37 36 34 31 27 24 24 22 22 23 23 21 22 24 24 25
48 50 51 51 49 48 46 45 44 44 42 41 40 40 40 40 39 39 39 39 39 39 37 34 31 30 30 29 27 25 23 22 20 19 19 21 21 20 22 25 25 24 23
47 48 48 47 45 45 45 43 43 42 41 41 41 40 40 40 39 39 39 39 37 34 31 28 26 25 25 25 24 23 22 20 17 18 21 20 20 23 24 23 19 19 21
44 45 45 43 43 43 43 41 40 41 41 40 40 40 39 39 39 38 36 34 32 30 28 26 25 23 22 21 20 19 19 19 18 20 19 20 21 23 22 18 17 19 19
42 42 42 42 41 40 40 40 40 40 40 39 38 37 36 32 30 30 31 30 28 28 28 26 24 22 21 19 19 18 19 19 19 19 19 19 21 21 19 18 18 17 17
40 41 41 40 39 39 39 39 39 38 36 33 30 27 26 26 23 21 23 24 25 25 25 25 25 22 20 18 17 18 18 18 19 19 18 18 15 15 16 16 15 14 14
40 40 39 39 38 39 38 37 33 31 30 26 24 23 23 22 17 16 19 23 23 24 24 23 22 22 20 18 16 16 16 17 17 17 15 12 11 13 14 14 13 12 13

GFSMW_sfc_30mbdewp_060.txt.gz
Dewpoint
50 51 52 53 53 54 54 54 54 54 53 53 53 53 52 52 54 55 55 55 55 55 56 55 55 56 55 54 53 52 50 49 47 43 41 40 38 37 36 36 39 41 42
50 50 49 51 52 52 53 53 53 53 54 54 53 53 52 51 52 52 54 55 56 57 57 57 56 57 56 55 54 52 51 50 46 44 40 39 39 40 39 39 36 38 39
49 49 48 50 52 51 52 52 52 53 53 53 52 48 48 51 49 50 50 51 52 54 56 56 57 56 56 54 53 52 51 50 47 43 45 40 40 39 41 41 40 37 37
50 49 48 48 51 51 52 52 52 52 51 52 51 49 48 49 48 48 50 51 51 52 53 55 55 56 56 55 54 53 51 50 48 44 44 45 43 40 41 40 41 41 38
50 50 49 48 49 51 51 51 51 51 51 50 49 49 47 46 47 49 48 50 51 52 53 54 55 55 56 55 55 54 52 51 50 46 44 44 44 44 43 42 42 40 42
50 50 50 49 50 51 51 51 50 50 50 51 51 49 48 46 45 45 47 48 50 51 53 54 55 55 55 56 55 55 54 53 51 49 47 46 46 44 44 43 42 40 39
49 50 50 49 49 49 50 51 51 50 49 50 51 51 49 48 46 45 46 47 48 50 51 54 55 55 56 56 56 56 56 55 53 52 52 51 49 47 46 44 44 42 39
48 49 50 50 49 49 50 50 50 50 50 49 49 50 51 50 48 47 48 48 49 50 52 53 54 55 56 56 57 57 56 55 54 53 53 51 49 47 47 46 42 38 37
47 48 49 49 49 49 49 50 49 50 50 50 49 48 49 51 51 49 48 49 52 52 53 53 54 55 56 56 56 56 55 54 53 52 50 49 47 47 44 42 40 41 39
46 48 49 49 49 48 49 50 49 49 49 49 49 48 48 49 50 51 50 49 50 53 54 54 54 55 55 55 55 53 52 52 50 49 48 47 46 45 43 42 41 40 39
44 47 48 49 49 48 49 49 49 48 48 48 48 49 48 48 49 49 50 51 52 55 55 55 56 56 55 55 54 52 51 51 49 47 47 46 44 43 43 43 42 41 40
40 44 48 49 49 48 48 48 48 48 48 48 47 47 48 48 48 48 49 51 52 55 55 56 56 57 55 53 52 51 50 49 48 46 45 44 44 43 43 41 40 39 38
36 42 45 49 49 49 49 49 49 48 48 49 47 47 47 47 48 48 49 51 53 55 56 56 56 56 54 53 52 51 50 48 47 45 45 44 43 42 41 40 38 38 38
28 36 42 46 49 49 49 49 50 50 49 49 49 48 48 48 48 50 52 53 55 54 55 56 56 56 53 52 51 50 48 46 46 45 44 44 43 42 40 38 37 36 35
27 30 38 43 46 49 49 49 49 50 51 51 50 50 50 50 52 53 54 55 55 55 55 56 55 53 51 50 49 48 46 45 44 44 43 43 42 41 40 38 36 34 31
28 26 32 40 43 47 49 50 50 50 51 52 52 51 52 52 53 55 55 56 56 56 57 55 53 51 50 48 47 46 45 44 43 42 42 42 41 38 36 33 31 30 28
29 28 28 35 39 43 47 49 50 52 52 52 52 52 53 53 54 55 56 56 56 55 53 51 50 49 47 45 44 43 43 42 42 41 40 36 33 33 31 29 25 20 20
30 29 29 30 39 42 44 45 47 49 52 53 53 53 54 54 55 56 55 54 52 51 49 48 47 46 44 42 42 41 41 40 40 39 35 32 30 28 25 20 17 19 21
29 30 30 30 34 42 49 50 49 50 52 53 54 54 55 55 53 52 50 48 47 47 45 45 44 43 40 40 39 39 36 34 32 30 30 28 25 25 23 17 17 22 24
31 31 32 34 40 46 52 51 52 53 52 53 54 54 54 51 50 48 47 46 45 42 41 40 41 40 38 38 37 35 31 29 26 24 24 24 22 22 24 23 22 20 21
37 45 45 45 47 51 52 51 52 53 51 50 50 50 50 49 47 44 43 42 39 36 34 33 33 34 36 35 34 32 30 27 24 20 19 20 21 23 26 24 21 20 18
40 48 46 48 50 51 51 49 49 47 47 47 46 45 44 43 41 40 39 37 34 32 31 29 28 28 29 30 30 29 27 25 22 19 18 21 23 25 23 20 19 18 17
43 48 49 48 48 48 49 48 43 44 44 43 42 41 41 40 40 38 36 34 33 31 30 28 25 24 24 24 23 22 21 20 18 20 20 22 24 22 19 18 18 16 16
44 46 47 46 45 45 45 44 42 42 42 41 39 37 36 35 35 35 34 33 32 30 29 27 24 21 20 20 21 20 19 20 20 21 22 23 21 19 19 17 16 15 14
43 44 44 42 42 42 42 42 42 41 39 36 34 32 31 30 29 28 29 30 31 31 29 27 24 21 19 18 19 19 19 22 22 22 19 17 16 15 16 15 13 13 12
40 39 38 37 36 36 36 38 38 37 34 32 30 29 28 27 27 27 26 29 29 27 26 25 24 23 23 23 23 23 23 22 22 19 15 13 12 13 13 13 12 11 11

GFSMW_sfc_30mbdewp_063.txt.gz
Dewpoint
50 51 51 53 55 55 55 55 55 56 56 56 55 55 56 56 56 57 56 55 54 54 54 55 54 55 54 53 54 54 52 50 49 46 45 43 42 40 38 39 39 41 43
50 51 49 52 53 54 55 55 54 55 56 56 55 53 55 55 56 56 56 55 55 54 55 55 56 55 55 55 55 54 53 52 49 48 46 46 44 43 42 40 39 41 41
49 49 49 50 52 52 54 54 54 54 55 55 54 53 52 52 53 54 54 55 55 57 57 57 57 57 58 56 56 55 54 53 51 49 49 45 45 44 43 43 40 39 40
50 49 49 49 51 52 53 54 53 54 54 55 53 53 51 51 52 52 53 55 56 56 56 56 58 58 58 57 57 56 55 54 52 49 47 48 47 45 46 43 43 44 42
50 49 49 49 50 51 52 53 53 53 53 53 52 50 51 51 50 51 51 52 53 54 53 51 53 56 55 57 57 56 55 54 53 51 49 48 47 47 47 46 46 44 44
50 50 50 49 49 51 52 52 52 52 52 52 52 50 49 49 50 49 50 51 52 52 53 53 55 56 56 57 57 57 56 55 54 53 52 49 47 47 46 45 47 44 46
49 50 50 49 49 50 51 51 51 51 51 51 51 50 50 49 50 48 49 50 51 51 53 54 55 56 56 56 57 57 56 56 55 54 53 51 50 52 48 47 46 45 45
49 50 50 49 49 50 50 51 50 50 51 51 50 50 50 50 49 48 48 49 50 50 52 53 53 54 56 56 57 57 57 57 55 55 54 54 54 54 50 48 45 43 42
48 49 50 50 49 49 50 50 50 50 51 51 51 51 51 50 49 49 50 49 50 50 51 52 53 54 55 56 57 57 57 57 56 56 57 55 55 53 50 48 47 46 43
47 48 50 50 50 49 50 50 50 50 50 51 51 50 50 51 51 51 50 50 50 50 51 51 52 53 54 55 56 56 57 56 56 56 55 54 53 51 48 47 45 44 45
45 47 49 50 50 49 49 50 50 50 50 51 51 50 50 50 51 51 52 52 51 51 51 51 51 51 52 55 56 56 56 54 55 53 52 52 50 48 47 46 45 43 42
38 45 48 49 49 49 49 49 50 50 50 51 51 51 51 50 50 50 50 52 52 52 51 52 52 53 54 55 55 55 54 52 52 51 50 50 48 47 46 44 42 42 41
31 41 47 48 49 49 49 49 49 50 49 50 50 50 51 51 50 50 50 50 51 51 52 52 53 53 53 54 55 55 53 52 52 51 50 49 47 46 44 42 41 40 39
30 33 43 47 48 49 49 49 50 50 49 49 48 48 49 50 50 50 50 50 51 51 51 53 53 53 54 55 55 53 52 51 51 50 49 47 46 44 43 42 40 40 37
30 29 34 42 47 49 50 50 50 50 50 49 48 48 49 49 49 49 50 50 50 51 51 52 53 55 55 55 55 53 52 50 48 47 47 45 45 44 42 41 38 37 35
30 31 31 35 43 47 49 50 50 51 51 50 49 49 50 49 49 49 49 50 51 51 52 53 54 55 55 54 52 53 51 49 46 45 44 43 43 41 40 38 37 36 31
31 31 31 32 38 43 47 49 50 51 51 51 51 51 50 51 51 51 51 52 53 54 54 55 55 56 54 51 49 48 48 46 45 43 41 39 37 36 34 32 30 27 25
29 31 31 31 33 39 44 48 49 51 51 51 51 52 52 52 52 53 53 54 55 55 55 55 53 53 50 47 45 45 44 43 42 41 38 35 34 32 29 25 20 19 21
30 30 32 32 33 36 41 44 48 50 51 52 52 52 53 53 53 54 54 54 53 52 50 49 48 47 44 42 42 41 39 36 35 34 33 32 30 29 26 22 22 21 23
32 34 36 34 33 35 45 46 46 48 49 51 52 53 54 54 54 52 51 48 48 45 43 42 43 42 39 38 38 37 34 31 30 29 29 27 28 28 24 22 20 19 20
38 43 46 46 47 49 50 49 51 50 52 53 53 53 53 53 51 48 46 44 41 38 36 35 35 36 37 36 35 35 33 29 27 25 24 24 25 25 25 23 21 20 17
44 47 49 48 49 51 51 51 51 50 51 51 50 48 47 46 45 43 40 38 36 33 32 31 30 30 32 33 33 32 30 28 25 21 21 24 25 25 22 21 20 19 19
44 47 47 47 47 48 49 48 45 46 46 45 43 42 42 41 40 38 36 34 33 32 30 29 27 26 27 28 29 27 25 23 21 21 23 24 24 21 21 20 18 17 16
44 45 44 43 43 44 44 45 44 44 43 41 40 39 37 36 36 35 34 33 32 31 29 28 26 24 23 22 21 21 21 22 22 23 24 24 23 21 19 18 16 15 13
39 40 40 38 37 38 40 42 43 42 38 37 35 34 32 31 30 29 31 31 32 32 30 28 26 24 21 20 20 20 21 23 23 23 21 20 19 18 17 16 14 13 12
33 33 33 33 32 31 30 33 36 37 35 34 33 32 31 29 28 28 27 29 28 27 27 26 25 25 25 25 25 25 24 23 22 20 18 17 17 16 14 13 12 12 12

GFSMW_sfc_30mbdewp_066.txt.gz
Dewpoint
50 49 51 52 55 56 56 57 56 55 56 56 56 56 56 57 56 56 56 55 53 54 53 51 54 53 52 53 53 53 52 51 50 46 45 44 43 42 41 41 40 40 42
50 49 50 51 53 56 56 56 56 56 55 55 55 53 56 55 56 54 56 55 55 55 55 54 52 52 52 53 55 54 53 52 52 49 48 47 47 46 44 42 41 41 41
48 49 49 50 53 54 55 56 56 55 55 55 56 53 54 54 55 56 55 55 55 54 54 55 53 53 53 53 54 54 53 52 54 53 49 46 44 46 47 47 45 42 43
48 49 49 49 51 53 55 56 55 56 56 56 55 52 51 50 52 52 55 54 56 54 54 55 54 56 57 56 56 55 54 55 52 52 52 51 49 44 42 46 47 46 43
47 48 49 48 49 52 53 55 55 55 55 55 54 53 51 50 52 53 53 54 56 56 56 57 56 58 58 57 57 57 57 55 53 51 50 51 51 51 49 45 48 46 46
47 48 49 49 48 51 52 53 53 54 55 55 55 53 52 52 52 53 54 53 54 54 56 56 57 57 57 56 55 54 57 54 55 53 54 52 51 50 50 50 50 49 47
46 48 48 48 47 49 51 52 52 52 54 54 54 52 52 52 51 52 53 52 53 53 54 54 53 54 52 53 55 55 54 55 55 55 54 55 54 52 52 52 51 50 49
45 47 48 49 48 48 50 52 51 51 53 54 54 52 51 51 51 51 52 52 52 52 53 55 53 53 53 53 53 54 54 54 55 55 55 55 55 54 54 52 52 48 47
42 46 48 49 49 48 49 51 50 50 51 52 54 53 51 51 50 51 51 51 52 51 52 54 54 54 52 52 52 53 53 54 55 57 57 57 55 55 55 55 52 50 47
41 45 47 50 50 49 49 50 50 49 51 52 53 53 52 52 50 51 50 50 50 50 50 51 51 51 50 51 52 52 52 53 55 57 57 57 57 57 56 55 53 51 50
42 44 46 49 50 50 49 49 50 49 50 51 52 52 52 52 52 52 51 50 50 50 50 50 50 50 49 50 51 52 52 53 55 57 56 56 56 55 54 53 52 50 49
35 42 46 47 49 50 49 49 49 49 49 50 51 52 52 52 52 52 52 52 52 52 51 51 49 49 49 50 51 52 52 54 55 55 55 54 54 52 52 51 49 48 47
31 37 43 46 48 49 50 49 50 49 49 50 50 51 52 52 51 51 51 52 52 52 52 51 51 50 50 50 51 52 53 55 54 54 53 53 52 51 50 49 48 47 46
30 34 40 43 46 48 49 49 50 50 49 49 49 50 51 52 52 52 51 51 52 51 51 52 51 52 51 51 52 52 53 53 53 53 53 53 52 50 49 47 46 43 41
30 31 33 38 43 46 48 49 49 50 50 49 48 49 50 51 51 51 51 51 52 51 51 51 52 52 52 52 52 51 53 53 53 54 53 52 51 49 48 45 43 42 39
30 30 31 32 35 42 46 48 49 49 51 50 49 49 49 50 50 51 51 51 51 51 51 51 51 52 52 51 51 52 53 54 53 52 51 49 47 46 45 43 42 40 38
29 31 32 33 34 36 42 46 48 49 50 50 50 50 50 50 50 50 50 50 50 51 51 51 50 51 51 52 53 53 54 54 53 50 47 44 44 43 40 38 37 34 34
33 30 31 33 33 35 37 43 45 48 50 50 50 50 50 50 50 50 50 50 51 51 52 52 52 53 54 53 53 52 53 50 48 46 44 42 39 38 35 33 30 28 25
37 35 34 34 37 35 35 38 41 44 47 49 50 50 50 50 51 51 52 52 53 54 54 55 55 55 54 50 48 46 44 41 40 39 38 37 33 33 31 28 26 25 25
40 41 41 44 44 44 42 37 39 42 45 47 48 50 51 51 52 52 53 55 55 54 48 46 46 46 45 41 42 42 37 34 32 32 32 32 32 31 31 30 28 25 22
42 45 46 47 49 50 50 46 43 42 44 47 50 51 52 53 53 55 53 48 45 42 39 37 37 38 38 37 36 35 34 31 30 29 29 30 30 30 29 28 26 23 19
43 46 47 47 48 49 50 50 50 52 52 52 53 53 53 50 50 46 43 41 39 36 34 33 31 32 33 34 34 33 32 31 29 27 28 29 29 27 25 22 21 22 21
43 45 45 45 45 44 47 48 47 47 46 45 44 43 42 41 41 40 38 37 35 34 32 30 29 27 29 29 30 30 29 28 27 27 29 28 25 23 22 22 22 22 22
40 41 42 42 41 40 39 41 44 44 43 41 39 38 37 36 36 36 35 34 33 32 30 29 27 25 25 25 26 26 26 27 27 28 26 24 23 23 22 21 20 17 16
35 35 37 38 37 37 35 35 37 39 38 37 35 34 33 31 30 29 31 31 32 32 30 28 26 24 23 24 26 25 25 25 26 25 25 24 23 20 19 19 19 17 14
31 30 30 30 31 32 32 32 33 34 34 33 33 32 31 30 28 27 26 29 29 28 28 27 25 25 25 27 27 26 26 25 26 25 24 23 23 22 20 18 16 15 15